Back to catalog

FALCON 9 R/B

AliveHEO
NORAD 56175·ROCKET BODY·🇺🇸 United States

Launched Apr 7, 2023 from Cape Canaveral Space Force Station

Loading…

Next Passes (next 24 hours)

TLE

FreshSource: Space-Track

Epoch: Sep 14, 2026, 13:36 UTC

1 56175U 23052B   26257.56701779  .00054900  46739-6  11459-2 0  9995
2 56175  26.9916  48.9399 6018296  13.8181 357.1791  4.10212710 42237

Track FALCON 9 R/B in real time with AllMySat

Download on the App Store